Regional Weather Roundup
Issued by NWS

Home | Current Version | Previous Version | Graphics & Text | Print | Product List | Glossary Off
Versions: 1 2 3 4 5 6 7 8 9 10 11 12 13 14 15 16 17 18 19 20 21 22 23 24 25 26 27 28 29 30 31 32 33 34 35 36 37 38 39 40 41 42 43 44 45 46 47 48 49 50

713
ASUS43 KDTX 220201
RWRMI
MICHIGAN HOURLY REGIONAL WEATHER ROUNDUP
NATIONAL WEATHER SERVICE DETROIT/PONTIAC MI
1000 PM EDT THU MAY 21 2015

NOTE: "FAIR" INDICATES FEW OR NO CLOUDS BELOW 12,000 FEET WITH NO
SIGNIFICANT WEATHER AND/OR OBSTRUCTION TO VISIBILITY.

MIZ047>049-052>055-059>063-066>070-074>076-081>083-220300-
SOUTHEAST LOWER MICHIGAN

CITY           SKY/WX    TMP DP  RH WIND       PRES   REMARKS
ADRIAN         CLEAR     55  33  43 W6        30.01R
ALMA           MOCLDY    56  38  50 W5        29.96S
ANN ARBOR      CLEAR     48  36  63 W6        29.99R
BAD AXE        CLOUDY    58  37  45 N6        29.93R
CARO           MOCLDY    60  37  43 W7        29.93R
DETROIT CITY   PTCLDY    59  31  34 W7        29.97R
DETROIT        PTCLDY    58  34  40 SW8       29.99R
FLINT          MOCLDY    60  35  39 W8        29.97R
GROSSE ILE     CLEAR     57  37  47 SW5       29.97R
HILLSDALE      CLEAR     54  33  46 SW3       30.01S
HOWELL         CLEAR     53  34  48 W6        29.98R

CITY           SKY/WX    TMP DP  RH WIND       PRES   REMARKS
JACKSON        CLEAR     52  35  52 SW5       30.00R
LAMBERTVILLE   CLEAR     55  36  47 W3        30.01R
LANSING        CLOUDY    57  37  47 W5        29.99R
LAPEER         FAIR      58  32  38 W5        29.95R
MASON          PTCLDY    53  35  49 CALM      29.98S
MONROE         CLEAR     54  37  54 W5        29.98R
MT. CLEMENS    PTCLDY    58  33  39 W8        29.94R
PONTIAC        PTCLDY    55  33  43 W7        29.97R
PORT HOPE        N/A     50  40  68 N9        29.92R
PORT HURON     CLEAR     57  36  44 SW3       29.94R
TRI CITIES     MOCLDY    60  39  45 W12       29.95R
MIDLAND        CLOUDY    60  37  42 W5        29.94R
TROY           CLEAR     60  31  33 W8        29.98R
SAGINAW HB     MOCLDY    61  34  36 W10       29.94R
$$
MIZ043>046-050>051-056>058-064>065-071>073-077>080-220300-
SOUTHWEST LOWER MICHIGAN

CITY           SKY/WX    TMP DP  RH WIND       PRES   REMARKS
BATTLE CREEK   CLEAR     52  37  56 SW9       30.00S
BENTON HARBOR  CLEAR     55  34  45 SW6       30.00S
BIG RAPIDS     CLOUDY    56  35  45 NW5       29.97R
COLDWATER      CLEAR     51  35  55 SW5       30.01S
FREMONT        LGT RAIN  53  40  61 SW6       29.95F
HOLLAND        CLEAR     57  39  51 SW10      29.98S
GRAND RAPIDS   LGT RAIN  58  39  49 W7        29.98R
IONIA          CLOUDY    57  37  46 W3        29.98R
KALAMAZOO      CLEAR     53  36  52 SW7       30.01R
LUDINGTON      CLOUDY    51  40  67 NE7       29.99R
MARSHALL       CLEAR     52  37  55 SW3       29.99S
MOUNT PLEASANT MOCLDY    57  39  51 W6        29.96R
MUSKEGON       MOCLDY    55  37  50 CALM      29.97R
SOUTH HAVEN    CLEAR     57  33  39 SW7       29.99S
$$
MIZ016>042-220300-
NORTHERN LOWER MICHIGAN

CITY           SKY/WX    TMP DP  RH WIND       PRES   REMARKS
ALPENA         CLEAR     50  28  42 NW9       29.95R
BEAVER ISLAND  CLEAR     47  22  37 N6G16     30.01R
BELLAIRE       CLEAR     47  30  52 CALM      30.01R
CADILLAC       PTCLDY    49  30  48 N7        29.99R
CHARLEVOIX     CLEAR     42  32  67 W6        30.03R
FRANKFORT      CLEAR     52  23  31 NE6       30.01R
GAYLORD        CLEAR     47  27  45 NW6       29.98R
HARBOR SPRINGS CLEAR     45  29  53 CALM      29.99R
HOUGHTON LAKE  CLOUDY    51  29  42 NW9       29.98R
MANISTEE       PTCLDY    46  36  66 CALM      30.02R
OSCODA         CLOUDY    58  32  36 NW12G17   29.92R
PELLSTON       CLEAR     41  30  65 NW6       29.99R
ROGERS CITY    CLEAR     48  31  52 NW14      29.97R
TRAVERSE CITY  PTCLDY    50  29  44 N5        30.01R
$$
MIZ007>008-015-220300-
EASTERN UPPER MICHIGAN

CITY           SKY/WX    TMP DP  RH WIND       PRES   REMARKS
KINROSS        CLEAR     45  27  49 NW13      29.96R
NEWBERRY       CLEAR     43  24  48 NW8       29.99R
S. S. MARIE    CLEAR     40  28  62 W8        29.95R WCI  34
$$
MIZ004>006-011>014-085-220300-
CENTRAL UPPER MICHIGAN

CITY           SKY/WX    TMP DP  RH WIND       PRES   REMARKS
MANISTIQUE     CLEAR     44  18  35 N7        30.01R
ESCANABA       CLEAR     52  25  35 N7        30.02R
MENOMINEE      CLEAR     50  34  53 E7        30.01R
SAWYER-GWINN   CLEAR     45  14  29 N13       30.03R
$$
MIZ001>003-009>011-084-220300-
WESTERN UPPER MICHIGAN

CITY           SKY/WX    TMP DP  RH WIND       PRES   REMARKS
IRON MOUNTAIN  CLEAR     52  27  38 N3        30.00R
HOUGHTON       CLEAR     45  31  58 CALM      30.04R
COPPER HARBOR    N/A     43  28  55 NW3       30.05R
IRONWOOD       CLEAR     50  34  53 CALM      30.00S
$$

ABBREVIATIONS USED IN REMARKS
   TC - TEMPERATURE IN CELSIUS
  WCI - WIND CHILL INDEX
   HX - HEAT INDEX
  VSB - VISIBILITY




USA.gov is the U.S. government's official web portal to all federal, state and local government web resources and services.